Total_Precipitation_Accumulation
2.85 3.00 2.76 2.48 2.44 2.41 2.80 3.29 3.68 3.42 2.96 2.66 2.47 2.38 2.49 2.68 3.00 2.74 2.77 2.76 2.41 2.10 1.85 1.78 1.76 1.71 1.72 1.81 1.96 2.02 2.06 2.14 2.31 2.58 2.90 3.31 3.75 3.86
2.94 3.02 2.87 2.60 2.67 2.52 2.62 3.02 3.38 3.58 3.21 2.45 2.42 2.34 2.50 2.40 2.81 2.61 2.79 2.79 2.37 2.10 1.85 1.74 1.66 1.61 1.58 1.61 1.67 1.77 1.85 1.85 1.86 1.98 2.16 2.43 2.71 2.75
2.86 2.83 2.81 2.87 2.91 2.75 2.87 2.96 3.08 3.48 3.47 2.73 2.56 2.64 2.80 2.83 2.87 2.72 2.54 2.55 2.32 2.23 1.93 1.75 1.64 1.57 1.54 1.51 1.52 1.52 1.57 1.62 1.63 1.66 1.77 1.91 2.00 2.02
3.18 3.33 3.08 3.12 3.15 3.03 3.04 3.01 3.08 3.39 3.44 3.16 2.91 2.86 2.95 2.91 2.94 2.74 2.30 2.17 2.24 2.40 2.14 1.86 1.69 1.58 1.53 1.47 1.43 1.40 1.42 1.48 1.52 1.50 1.53 1.61 1.72 1.73
2.98 3.27 3.29 3.51 3.23 3.25 3.19 3.05 3.07 3.10 3.33 3.13 2.89 3.05 3.04 2.99 2.94 2.59 2.39 2.44 2.22 2.50 2.42 2.02 1.77 1.67 1.55 1.44 1.34 1.29 1.28 1.31 1.39 1.45 1.47 1.47 1.48 1.50
2.70 2.84 2.99 3.29 3.28 3.38 3.21 3.21 3.33 3.41 3.53 3.36 3.15 3.23 3.34 3.33 3.23 2.86 2.74 2.61 2.44 2.22 2.34 2.11 1.95 1.85 1.71 1.58 1.48 1.34 1.32 1.31 1.32 1.33 1.38 1.43 1.45 1.42
2.68 2.64 2.65 2.91 3.00 3.09 2.80 3.01 3.37 3.44 3.50 3.42 3.27 3.29 3.28 3.45 3.18 3.01 2.88 2.88 2.76 2.44 2.33 2.05 1.97 1.82 1.76 1.78 1.71 1.57 1.45 1.40 1.39 1.38 1.36 1.36 1.42 1.49
2.96 2.89 2.77 2.71 2.70 2.74 2.74 2.84 3.02 3.04 3.11 3.26 3.17 3.14 3.17 3.33 3.52 3.39 3.23 3.10 2.85 2.53 2.58 2.24 2.08 2.00 1.82 1.70 1.85 1.77 1.59 1.48 1.43 1.43 1.45 1.49 1.54 1.57
3.00 2.96 2.60 2.44 2.71 2.59 2.73 2.75 2.57 2.52 2.55 2.73 2.74 2.74 3.22 3.56 3.92 3.55 3.39 3.22 2.93 2.77 2.83 2.44 2.23 2.13 1.91 1.85 2.01 1.75 1.55 1.43 1.41 1.42 1.50 1.56 1.58 1.59
2.70 2.81 2.73 2.59 2.64 2.79 2.68 2.40 2.15 2.13 2.21 2.12 2.11 2.37 2.85 3.51 3.87 3.83 3.87 3.61 3.23 2.82 2.72 2.47 2.23 2.07 1.87 1.89 2.12 1.97 1.75 1.55 1.46 1.44 1.44 1.49 1.54 1.57
2.43 2.47 2.47 2.31 2.50 2.66 2.53 2.28 2.07 1.95 2.01 2.01 1.97 2.20 2.49 2.86 3.32 3.59 3.53 3.41 2.98 2.55 2.49 2.40 2.23 2.24 2.15 2.03 2.01 2.14 1.94 1.73 1.63 1.55 1.51 1.49 1.50 1.55
2.54 2.55 2.59 2.32 2.27 2.23 2.10 2.10 1.92 1.82 1.98 1.95 1.89 1.91 2.03 2.37 2.87 2.97 3.06 3.23 2.94 2.59 2.30 2.36 2.26 2.46 2.39 2.11 1.99 1.96 1.87 1.85 1.80 1.70 1.60 1.58 1.61 1.43
2.32 2.25 2.26 2.25 2.00 1.83 1.79 1.75 1.71 1.84 1.95 1.92 1.82 1.79 1.92 2.10 2.27 2.54 2.83 2.92 2.79 2.43 2.26 2.44 2.29 2.35 2.37 2.08 1.93 1.90 1.82 1.72 1.71 1.77 1.80 1.81 1.77 1.59
2.34 2.32 2.32 2.30 2.01 1.84 1.65 1.53 1.64 1.69 1.71 1.83 1.74 1.62 1.65 1.76 2.02 2.34 2.68 2.82 2.75 2.61 2.62 2.72 2.60 2.49 2.46 2.21 1.96 1.83 1.83 1.79 1.75 1.77 1.81 2.07 2.01 1.94
2.17 2.53 2.55 2.47 2.22 1.90 1.80 1.83 1.79 1.65 1.66 1.68 1.59 1.51 1.56 1.73 2.03 2.39 2.69 2.91 2.86 2.68 2.62 2.64 2.68 2.75 2.80 2.45 2.13 2.04 2.07 1.99 1.87 1.83 1.82 1.87 1.93 1.98
2.13 2.45 2.61 2.58 2.41 2.15 2.04 1.97 1.76 1.70 1.78 1.75 1.76 1.81 1.93 2.06 2.21 2.36 2.63 2.82 2.89 2.70 2.62 2.63 2.69 2.86 2.81 2.64 2.50 2.32 2.20 2.13 2.07 2.07 2.08 2.05 2.05 2.02
2.31 2.50 2.63 2.72 2.74 2.65 2.54 2.46 2.34 2.20 2.03 1.97 2.05 2.07 2.13 2.21 2.26 2.43 2.70 2.80 2.73 2.47 2.49 2.62 2.75 2.87 2.89 2.91 2.72 2.38 2.25 2.13 2.09 2.19 2.24 2.17 2.06 1.99
2.25 2.35 2.60 2.81 2.89 3.00 3.05 2.93 2.69 2.49 2.31 2.30 2.27 2.29 2.32 2.31 2.34 2.50 2.72 2.82 2.67 2.47 2.43 2.55 2.84 3.04 3.01 2.86 2.59 2.38 2.25 2.10 2.00 2.06 2.08 2.05 1.87 1.70
2.04 2.17 2.32 2.47 2.70 2.93 3.01 2.98 2.73 2.59 2.62 2.59 2.52 2.53 2.58 2.55 2.52 2.59 2.77 2.89 2.83 2.67 2.60 2.68 2.83 2.94 2.81 2.41 2.13 2.05 2.04 1.97 2.03 2.03 1.95 1.87 1.77 1.66
1.72 1.92 2.13 2.30 2.51 2.77 2.96 3.01 2.94 2.85 2.83 2.89 2.88 2.83 2.85 2.73 2.58 2.49 2.63 2.76 2.81 2.79 2.73 2.64 2.60 2.67 2.68 2.49 2.28 2.04 1.94 2.01 2.02 1.99 1.92 1.87 1.84 1.90
1.60 1.65 1.76 1.99 2.25 2.51 2.77 2.96 2.96 2.88 2.81 2.87 2.88 2.85 2.89 2.86 2.67 2.50 2.54 2.75 2.80 2.72 2.57 2.37 2.33 2.63 2.86 3.00 2.73 2.22 2.01 2.04 2.12 2.12 2.08 2.16 2.07 1.96
1.66 1.68 1.79 1.97 2.19 2.44 2.64 2.76 2.82 2.83 2.79 2.76 2.68 2.63 2.66 2.67 2.53 2.46 2.45 2.53 2.57 2.56 2.52 2.54 2.77 2.97 3.01 2.99 2.61 2.26 2.16 2.17 2.30 2.42 2.27 2.11 2.00 1.88
1.80 1.80 1.84 1.92 2.11 2.33 2.49 2.65 2.74 2.77 2.78 2.77 2.72 2.61 2.59 2.61 2.55 2.51 2.50 2.53 2.54 2.53 2.67 2.79 2.85 2.95 2.91 2.87 2.79 2.64 2.48 2.42 2.41 2.32 2.07 1.93 1.82 1.73